Wind_Speed
27 27 27 26 25 24 22 20 18 17 17 20 19 17 14 11 10 7 8 16 24 14 19 25 15 14 14 4 4 2 1 3 5 1 6 9 8 3 1 10 5 7 7 17 30
28 29 29 28 27 26 24 22 19 20 19 21 16 14 10 8 8 13 21 15 16 21 28 25 10 12 5 4 3 3 2 5 4 6 5 6 11 11 6 10 3 7 19 31 29
31 32 32 31 30 28 26 23 22 23 23 19 14 10 8 4 3 7 12 9 21 26 27 20 21 7 5 4 4 5 4 3 5 7 6 7 6 7 8 8 7 17 24 26 29
33 33 34 33 31 29 27 24 24 24 25 18 10 4 5 1 1 6 15 3 29 27 26 16 12 9 6 6 6 4 8 6 4 7 3 3 6 4 10 3 14 23 29 27 24
34 35 34 36 32 29 25 23 24 24 22 16 5 2 1 1 7 17 12 14 28 30 24 8 14 5 6 6 4 9 7 5 9 9 7 4 7 5 10 9 16 21 23 25 21
36 37 36 38 34 30 23 21 25 24 15 10 2 5 3 2 2 18 2 22 27 25 20 11 11 6 5 4 6 5 12 13 9 9 5 6 4 8 5 17 19 24 24 20 19
39 40 41 40 37 29 20 20 26 18 11 11 5 2 2 8 8 13 3 19 26 26 10 14 8 8 4 1 7 3 5 5 7 4 6 8 4 4 15 17 22 21 21 19 18
42 42 43 42 37 26 18 22 20 8 8 5 6 1 4 6 7 13 1 3 20 18 2 8 4 2 2 3 4 4 3 1 4 6 6 7 3 5 16 19 21 22 19 18 19
42 43 44 43 36 21 20 20 11 5 6 7 2 2 5 11 6 8 11 6 14 15 10 3 3 2 2 1 4 4 4 7 3 7 3 6 1 9 14 15 17 19 20 18 17
43 43 43 40 30 20 22 8 9 5 4 2 2 2 4 6 12 14 8 10 4 8 2 2 3 2 2 4 6 7 4 4 5 3 7 6 1 13 16 17 18 18 18 19 19
42 43 45 36 21 19 20 2 6 5 8 1 8 3 8 17 6 9 4 6 5 6 7 4 4 15 26 10 3 4 5 6 4 6 5 8 7 16 16 13 17 18 18 20 21
44 46 47 31 13 15 21 7 8 6 7 3 6 5 11 6 3 13 10 5 5 5 7 3 14 14 6 8 7 7 3 4 5 2 4 5 10 12 18 22 23 22 19 20 18
44 46 46 24 6 11 9 9 8 7 2 7 4 4 7 1 2 9 7 5 5 6 11 7 5 11 9 6 10 12 8 5 1 4 2 4 5 6 13 10 14 14 16 16 20
44 46 41 19 2 9 4 10 22 7 5 4 6 6 8 4 3 6 12 2 3 9 7 10 6 10 13 15 10 9 14 14 5 1 3 2 5 6 8 17 19 15 19 18 20
44 44 30 11 7 3 11 25 5 4 2 3 5 6 11 6 5 11 16 7 4 4 4 8 7 12 11 20 13 12 8 11 11 5 1 5 1 7 10 11 16 19 19 20 20
42 40 18 11 8 18 22 16 4 5 4 3 3 5 6 6 6 5 6 6 2 5 3 8 3 8 19 9 15 4 1 3 3 4 8 11 10 6 7 12 18 16 18 19 19
41 34 7 7 10 21 15 3 4 3 3 3 3 5 3 6 6 7 5 8 6 8 7 6 11 4 3 10 14 10 10 2 3 5 12 8 12 9 8 9 14 23 24 24 21
41 24 3 13 27 13 4 5 3 2 1 1 3 1 3 7 3 7 3 3 6 6 3 5 7 8 5 12 9 14 11 6 8 4 14 6 7 6 20 8 17 18 24 19 17
42 16 3 29 23 8 5 4 4 1 2 1 1 4 3 3 3 6 3 2 3 3 4 5 6 5 5 4 7 6 14 11 4 1 1 9 4 8 3 13 10 16 15 17 20
28 11 8 34 14 4 5 3 3 1 2 3 2 1 1 3 4 5 1 4 2 5 2 3 6 3 7 3 8 11 9 9 3 6 5 4 6 8 8 9 10 8 13 15 20
7 4 20 30 5 5 3 3 2 2 2 4 5 3 3 2 2 2 2 2 3 3 5 2 5 8 6 6 10 6 11 4 7 7 6 1 6 8 11 14 14 14 14 16 18
7 3 24 25 4 2 2 6 5 3 3 2 3 5 5 6 3 4 5 2 3 2 1 3 2 6 8 5 7 3 4 5 9 12 4 4 6 4 10 11 10 15 14 18 19
3 3 13 13 4 3 5 5 3 3 3 3 2 2 2 5 2 3 2 5 5 1 2 2 2 4 6 4 4 5 3 5 6 2 20 12 5 5 7 7 10 12 12 8 10
2 4 4 4 2 3 5 3 5 8 2 3 3 5 2 2 4 2 3 3 6 4 4 3 3 6 5 3 2 6 14 7 4 3 3 12 11 6 7 7 4 7 8 9 9
3 0 2 4 3 2 3 4 5 4 4 3 1 5 3 1 2 4 4 3 2 4 2 3 5 6 11 12 10 10 16 17 6 12 3 6 10 10 10 10 6 6 5 10 15
2 2 2 2 3 3 1 2 5 6 3 5 7 8 1 4 5 4 4 4 6 3 4 2 4 4 5 12 14 15 16 15 18 18 11 17 10 4 4 5 4 5 7 8 12
2 0 0 3 2 2 2 2 4 8 6 12 11 4 5 10 7 11 7 6 5 7 7 5 3 2 5 4 8 6 15 8 6 9 3 6 2 7 1 6 8 8 9 12 14
Wind_Direction
8 5 1 357 352 348 347 349 350 346 338 334 325 322 318 310 300 260 231 231 213 168 157 156 151 156 161 183 216 141 24 255 158 129 122 199 201 167 64 138 171 162 139 143 151
7 4 1 359 355 353 347 346 343 341 337 329 323 315 321 308 292 245 263 230 204 192 164 159 164 155 170 198 202 160 172 242 190 139 149 210 216 155 148 163 67 86 114 141 150
8 6 2 359 356 352 349 346 342 338 335 325 311 311 314 319 293 242 339 235 184 175 171 158 148 147 175 161 218 187 213 225 208 161 171 175 180 171 144 194 175 155 145 152 156
8 5 2 359 356 353 348 345 340 339 337 330 308 305 302 317 319 2 338 193 174 167 152 151 158 157 166 190 196 236 222 250 271 205 150 155 153 194 175 213 149 161 158 156 162
6 4 2 360 355 352 348 341 339 343 338 342 313 239 213 10 256 353 345 158 168 168 168 157 165 140 184 186 145 227 260 240 246 274 279 291 209 198 182 101 133 147 159 162 162
6 2 0 359 356 350 347 339 335 340 338 346 338 174 160 239 250 357 350 162 169 171 174 155 179 180 163 188 183 219 238 276 280 266 265 247 194 129 108 132 136 153 162 167 169
5 1 359 356 354 349 348 338 331 343 342 356 122 95 53 243 334 345 196 182 183 183 168 186 161 174 154 48 237 267 316 322 253 223 239 144 125 203 147 144 146 161 166 170 175
4 1 357 355 351 348 349 337 333 359 357 55 127 46 244 326 9 41 108 225 198 197 326 212 167 106 209 306 360 170 130 15 280 188 228 143 234 147 153 150 156 164 174 178 185
2 360 356 353 352 354 351 335 357 62 49 109 106 85 345 328 321 328 322 213 179 190 216 159 166 175 327 53 7 356 191 213 292 195 170 178 178 160 163 158 163 170 177 185 188
358 358 355 352 354 1 358 14 57 53 22 287 286 334 335 318 318 321 16 163 135 129 33 125 98 146 31 144 204 198 193 229 194 246 178 188 200 168 174 168 172 178 182 189 193
355 355 352 351 355 9 17 11 17 351 40 268 278 240 280 320 344 8 24 135 98 108 168 197 162 205 211 197 242 197 198 221 219 214 141 207 175 183 186 176 177 184 192 194 198
353 353 350 346 352 16 46 82 123 273 314 295 248 257 271 305 319 7 12 145 152 171 141 133 227 224 153 182 213 252 259 248 295 206 161 222 224 189 184 195 189 184 193 200 194
351 352 347 343 340 14 63 101 352 333 75 304 271 297 308 16 27 343 28 337 193 186 192 189 245 166 186 172 195 229 225 230 236 351 262 161 278 160 205 193 200 203 199 198 199
349 351 347 349 71 357 59 348 333 173 57 292 336 7 331 330 67 8 356 247 234 204 170 231 234 200 189 211 175 217 218 244 250 329 212 207 260 222 174 199 199 196 202 196 202
348 352 350 2 328 10 325 331 351 143 1 38 347 341 331 53 311 347 25 6 300 256 161 210 197 212 208 216 183 235 161 210 237 205 254 251 243 265 166 197 205 204 207 207 199
346 351 3 7 3 334 331 334 149 52 225 7 24 346 17 2 1 304 21 36 317 303 211 209 229 210 222 196 198 176 19 116 104 140 240 219 215 257 191 202 211 205 210 212 206
343 347 16 18 326 338 336 65 44 139 346 35 322 356 53 341 356 4 27 45 46 7 10 330 234 208 282 212 201 174 164 265 219 206 236 200 213 229 240 203 201 200 207 210 203
340 341 1 358 353 351 17 54 157 47 47 358 342 288 67 7 343 352 18 49 51 106 328 340 242 182 200 202 201 196 182 163 197 214 231 154 213 234 230 210 211 211 210 206 202
338 348 74 352 352 1 65 61 169 190 222 271 285 88 348 1 353 5 26 115 30 29 95 349 269 325 229 354 199 198 208 181 115 217 227 209 246 304 223 234 199 215 205 199 200
335 332 356 351 345 49 73 196 159 317 344 85 157 176 169 334 35 11 319 351 91 19 133 135 296 250 302 285 245 220 160 193 198 198 223 269 194 211 193 230 228 225 208 205 206
350 25 353 354 42 53 130 228 294 308 321 171 207 222 182 175 198 215 295 90 39 355 353 85 140 295 324 205 212 210 210 208 175 191 204 160 259 194 194 201 214 223 205 207 197
351 30 357 358 48 31 49 316 295 312 338 299 178 195 174 178 217 230 201 128 133 356 338 264 219 266 253 270 328 222 255 211 208 212 249 128 246 173 195 203 218 232 200 205 202
5 287 357 16 67 354 317 304 264 309 343 335 287 201 162 190 199 220 162 145 131 152 225 254 232 300 285 84 35 48 19 18 313 295 216 215 235 239 216 222 234 232 240 194 205
23 5 344 34 53 78 344 298 326 336 117 354 292 67 85 222 246 208 202 184 145 190 216 307 267 227 234 74 69 312 311 342 359 292 273 225 226 205 253 211 209 243 261 265 216
30 7 195 353 357 16 304 319 307 332 4 342 360 86 104 226 261 223 236 143 2 224 136 186 244 252 270 275 273 258 277 286 247 244 225 216 214 223 226 252 201 222 249 256 249
76 43 6 285 291 305 341 287 313 316 318 284 236 255 250 214 219 236 183 176 195 203 175 243 266 306 284 242 244 263 262 262 249 249 247 265 270 313 35 73 23 338 319 286 250
58 71 129 280 272 291 306 283 267 297 261 253 315 304 276 261 261 255 238 231 181 178 190 193 219 278 259 321 324 276 226 209 93 34 280 238 14 306 338 50 26 356 347 329 313
Height
804 800 796 791 787 783 779 775 772 769 766 763 760 758 756 755 754 754 751 739 743 748 752 757 763 766 770 772 769 769 788 790 779 780 775 763 766 762 763 770 769 774 781 787 797
804 799 795 790 785 781 777 773 769 766 763 760 757 755 754 752 751 747 732 734 739 745 750 754 761 765 771 770 768 777 792 779 759 759 773 763 761 765 770 772 779 780 782 790 798
803 799 794 789 784 779 774 770 766 763 760 757 754 753 753 751 752 732 728 726 736 742 747 752 759 763 771 768 769 771 782 764 754 753 756 759 760 758 766 776 773 780 783 788 796
803 798 793 787 782 777 772 767 763 759 756 753 752 751 751 752 746 729 726 724 732 742 748 752 758 766 772 772 763 775 762 760 752 748 752 756 752 760 760 760 758 771 774 781 791
803 797 791 785 780 774 770 765 761 757 754 751 749 750 751 751 741 731 727 726 734 739 743 747 755 762 769 765 762 768 757 755 750 749 750 750 756 758 759 757 761 772 782 785 790
801 795 789 783 777 772 767 763 758 755 752 749 748 749 751 751 734 732 729 729 732 738 742 745 750 752 760 762 764 753 754 753 751 751 750 753 753 753 762 762 768 774 782 788 792
800 793 787 781 774 769 764 760 756 753 751 748 747 749 751 743 734 733 732 733 734 736 740 744 746 751 755 760 751 754 766 758 750 747 751 744 764 760 758 761 769 778 784 787 791
799 792 785 779 772 766 762 758 753 752 751 750 751 751 749 736 734 733 735 736 738 743 746 748 750 752 755 751 754 763 765 777 749 743 741 745 770 759 756 762 771 776 783 786 790
797 791 784 777 770 764 760 754 752 753 752 752 753 752 744 735 735 734 733 734 738 745 748 749 753 759 757 769 781 774 784 775 762 738 739 749 767 759 758 764 773 775 779 784 789
795 789 782 774 768 763 758 753 752 754 754 754 754 754 738 741 736 733 731 733 738 746 752 753 762 772 777 782 802 785 780 767 763 745 743 754 758 762 759 762 768 774 776 779 783
794 788 781 774 769 765 759 755 760 761 757 761 760 757 746 741 735 733 733 734 738 748 764 757 772 769 755 764 763 765 767 764 750 741 748 754 758 762 760 763 767 770 773 774 775
794 787 780 773 769 766 762 763 773 777 774 757 755 753 746 745 744 736 734 740 743 755 756 766 766 750 757 762 766 767 769 768 752 739 746 751 753 752 755 752 751 759 767 770 775
791 784 777 770 768 767 766 769 770 770 778 763 753 751 746 746 747 745 739 739 743 752 754 761 751 748 756 763 771 771 775 771 762 750 741 748 759 756 752 753 755 757 758 765 768
789 781 773 767 769 768 768 769 767 767 788 767 759 753 748 745 750 743 741 742 739 747 750 753 740 745 751 758 763 787 757 759 764 768 785 746 787 758 752 753 751 753 754 755 760
787 780 772 768 769 771 771 766 764 767 795 765 765 755 753 758 757 751 744 742 747 741 742 743 742 745 753 747 750 757 751 760 763 771 768 763 774 759 746 759 751 746 745 747 750
786 780 774 773 771 770 765 763 766 787 788 773 767 769 769 765 761 755 754 750 753 752 738 738 725 731 730 733 739 737 748 758 765 779 790 764 763 761 754 738 738 736 738 740 744
784 778 775 774 774 765 762 763 787 792 773 780 778 776 775 776 771 766 767 770 782 782 774 748 730 725 724 738 733 743 762 796 801 798 771 750 757 749 722 719 717 722 722 723 730
781 776 774 775 769 763 761 775 782 778 780 775 777 778 781 780 775 773 772 781 776 782 790 783 750 729 720 729 739 740 756 787 803 796 763 758 764 741 704 704 703 703 704 714 725
778 773 774 771 766 763 770 794 788 780 777 779 781 786 786 781 780 779 776 782 782 780 792 796 769 742 732 729 723 739 747 742 766 770 777 739 740 718 705 704 704 702 704 711 714
780 775 774 768 764 764 781 786 781 775 775 779 784 782 786 787 785 785 779 780 780 781 777 786 793 751 737 726 718 726 720 751 765 775 781 757 744 731 720 713 706 703 701 702 705
782 779 774 767 764 774 790 791 780 775 775 780 783 782 784 785 785 785 782 784 782 781 780 784 791 764 748 731 724 726 725 726 730 751 760 769 747 706 708 698 696 695 692 691 695
791 787 776 767 783 804 801 798 786 778 776 775 777 781 783 786 786 784 781 779 779 781 786 788 787 778 760 730 734 737 737 725 725 744 751 752 735 692 689 691 690 680 682 679 680
804 800 781 775 806 814 807 797 786 780 780 779 778 776 778 786 786 781 779 777 778 782 788 789 782 795 748 738 740 742 742 752 747 723 717 731 733 683 691 689 687 684 676 678 679
806 805 799 798 811 811 810 802 791 781 782 782 779 780 781 784 785 781 782 776 778 782 783 791 795 786 769 755 763 760 752 752 757 757 718 715 710 693 688 688 683 681 677 676 677
810 815 815 818 814 812 810 806 798 790 785 782 781 784 789 794 788 787 784 780 784 781 791 797 796 782 774 767 763 757 754 749 755 744 745 706 707 698 687 682 683 683 684 682 676
813 815 816 815 809 807 807 804 801 794 797 788 784 780 790 795 789 785 782 785 789 790 796 799 792 779 772 753 751 745 737 737 733 728 728 718 709 684 681 681 685 685 681 678 672
812 813 812 808 806 807 804 800 796 797 792 788 786 787 790 786 784 785 785 784 783 790 799 797 793 780 771 754 746 734 719 716 720 717 715 705 702 695 689 690 690 685 678 670 661